Content
SEND FEEDBACK

Daily
Averages
Monthly
Summary
Greece

KALAMATA, GREECE


Home > Europe > Greece
Elevation: 26 feet     Latitude: 37 04N     Longitude: 022 01E

WEATHER
 
SELECT A DAY
Number of Records: 254,103;   Date Range: 7/1/96 - 12/19/14
 
SHARE

PRINT THIS DATA

[ ← Previous Day ]
WEATHER ALMANAC - APRIL 7, 2013
[ Next Day → ]
[ °C ]   °F
Weather ElementAverageHighLow
Temperature65 °F77 °F (4:50 am)57.2 °F (7:50 pm)
Dewpoint50.4 °F59 °F (11:50 am)32 °F (4:50 am)
Humidity62.4 %83 % (1:20 pm)19 % (4:50 am)
Barometer28.69 in29.50 in (7:50 pm) (7:00 pm)
Wind Speed10.7 mph23 mph (8:20 am)
Wind Gust35.7 mph (6:20 am)
Weather ElementAverage
Visibility4.2 mi
Wind DirectionS (179.7 °)

Weather ElementTotal
Precipitation---
Cooling Degree Days2.1 (Base 65)
Growing Degree Days17.1 (Base 50)
Averaged from 37 records on April 7, 2013
WEATHER CONDITIONS BREAKOUT
WIND DIRECTION BREAKOUT
WEATHER BY HOUR - APRIL 7, 2013
[ °C ]   °F
Local TimeTemperatureDewpointHumidityBarometerVisibilityWind DirectionWind SpeedGust SpeedPrecipitationEventsConditions
1:50 AM66.2 °F41.0 °F40 %29.47 in5.0 miCalm
2:50 AM64.4 °F42.8 °F45 %29.42 in5.0 miCalm
3:50 AM62.6 °F44.6 °F52 %29.39 in5.0 miCalm
4:50 AM77.0 °F32.0 °F19 %5.0 miSSE (160°)17.3 mph28.8 mph
5:50 AM75.2 °F35.6 °F24 %29.33 in5.0 miSouth (170°)21.9 mph33.4 mph
6:20 AM71.6 °F39.2 °F31 %29.33 in5.0 miSouth (180°)17.3 mph35.7 mph
6:50 AM71.6 °F42.8 °F35 %29.33 in5.0 miSouth (180°)18.4 mph31.1 mph
7:20 AM69.8 °F44.6 °F40 %29.33 in3.7 miSouth (180°)11.5 mph23.0 mph
8:20 AM68.0 °F50.0 °F52 %29.36 in1.9 miSouth (180°)23.0 mphOvercast
8:50 AM66.2 °F51.8 °F60 %29.33 in1.9 miSouth (190°)18.4 mphOvercast
9:20 AM64.4 °F53.6 °F68 %29.33 in1.9 miSSW (200°)19.6 mph32.2 mphOvercast
9:50 AM64.4 °F55.4 °F73 %29.33 in2.5 miSouth (180°)12.7 mphMostly Cloudy
10:20 AM64.4 °F57.2 °F77 %29.33 in2.5 miSW (220°)16.1 mphMostly Cloudy
10:50 AM64.4 °F57.2 °F77 %29.36 in1.9 miSSW (210°)18.4 mph29.9 mphMostly Cloudy
11:20 AM64.4 °F57.2 °F77 %29.39 in1.9 miSouth (190°)10.4 mphMostly Cloudy
11:50 AM66.2 °F59.0 °F78 %29.39 in1.9 miSouth (170°)11.5 mphMostly Cloudy
12:20 PM66.2 °F59.0 °F78 %29.39 in1.9 miSouth (180°)10.4 mphMostly Cloudy
12:50 PM66.2 °F59.0 °F78 %29.39 in1.9 miSSW (200°)13.8 mphMostly Cloudy
1:20 PM64.4 °F59.0 °F83 %29.39 in1.9 miSSW (210°)15.0 mphMostly Cloudy
1:50 PM68.0 °F59.0 °F73 %29.39 in2.5 miSouth (190°)8.1 mphMostly Cloudy
2:20 PM68.0 °F57.2 °F68 %29.39 in3.1 miSSE (150°)8.1 mphMostly Cloudy
2:50 PM68.0 °F55.4 °F64 %29.39 in3.7 miSSE (160°)8.1 mphMostly Cloudy
3:20 PM71.6 °F48.2 °F43 %29.39 in5.0 miWest (260°)9.2 mphMostly Cloudy
3:50 PM69.8 °F48.2 °F46 %29.42 in6.2 miWest (280°)17.3 mphMostly Cloudy
4:20 PM66.2 °F50.0 °F56 %29.42 in6.2 miWest (280°)12.7 mphMostly Cloudy
4:50 PM64.4 °F50.0 °F59 %29.44 in6.2 miWest (270°)11.5 mphMostly Cloudy
5:20 PM62.6 °F50.0 °F63 %29.44 in6.2 miWest (280°)11.5 mphMostly Cloudy
5:50 PM62.6 °F50.0 °F63 %29.44 in6.2 miWest (270°)9.2 mphMostly Cloudy
6:20 PM60.8 °F50.0 °F68 %29.44 in6.2 miWest (260°)8.1 mphMostly Cloudy
6:50 PM60.8 °F50.0 °F68 %29.47 in6.2 miWSW (250°)8.1 mphMostly Cloudy
7:20 PM60.8 °F48.2 °F63 %29.47 in6.2 miSW (230°)6.9 mphMostly Cloudy
7:50 PM57.2 °F50.0 °F77 %29.50 in5.0 miCalmLight Drizzle
8:20 PM57.2 °F51.8 °F82 %29.50 in5.0 miCalmRainLight Rain
8:50 PM57.2 °F51.8 °F82 %29.50 in5.0 miSE (140°)4.6 mphRainLight Rain
9:50 PM57.2 °F51.8 °F82 %29.50 in5.0 miSW (230°)4.6 mphRainLight Rain
10:50 PM57.2 °F51.8 °F82 %29.50 in6.2 miSW (220°)6.9 mphRainLight Rain
11:50 PM57.2 °F51.8 °F82 %29.50 in5.0 miSouth (180°)4.6 mphOvercast
Hourly data recorded from LGKL, located miles away from Kalamata, Greece







STORIES FROM OUR PARTNERS